GFSNGP_700_temp_072.txt.gz
Temp
7 7 8 7 7 7 8 8 8 8 8 8 9 9 8 8 7 7 6 7 6 6 5 5 5 6 6 6 6 6 5 4 3 3 3 2 2 2 2 2 1 1 -0 -1
6 7 7 8 8 8 8 8 8 8 8 8 8 8 8 8 7 7 6 6 6 6 5 4 5 5 5 5 5 5 4 4 4 3 3 2 2 2 1 1 0 -0 -1 -2
5 6 7 7 7 8 8 8 8 8 8 8 8 8 8 7 7 6 6 6 6 6 5 5 5 5 5 5 5 4 4 4 4 3 3 2 2 2 1 0 -1 -1 -1 -3
5 6 4 6 7 7 7 7 7 8 8 8 7 7 7 7 7 6 6 6 5 5 5 5 5 5 5 4 4 4 4 3 3 3 3 2 2 1 0 -0 -1 -2 -4 -4
4 4 5 6 6 7 6 6 7 7 7 7 7 7 7 6 6 6 6 5 5 5 4 4 4 4 4 4 3 3 3 3 3 3 2 1 0 -0 -1 -1 -2 -4 -4 -4
2 4 3 5 6 6 6 6 6 7 7 7 7 6 6 6 6 5 5 5 5 5 4 4 4 4 3 3 3 3 3 2 2 1 0 -0 -1 -1 -2 -3 -4 -4 -5 -5
2 3 4 5 5 6 5 5 7 6 6 7 7 6 6 5 5 5 5 4 4 4 4 3 3 3 3 3 3 2 2 2 1 0 -0 -1 -1 -2 -3 -4 -4 -5 -5 -6
2 3 3 5 6 6 6 6 6 6 6 6 6 5 5 5 5 5 5 4 4 4 3 3 2 2 2 2 2 2 1 1 0 -0 -1 -2 -3 -3 -4 -5 -5 -6 -7 -7
3 3 3 4 4 4 5 5 5 5 5 5 5 5 5 4 4 4 4 4 3 3 3 2 2 2 2 2 1 1 0 -0 -1 -2 -2 -3 -4 -5 -5 -6 -6 -7 -7 -8
1 2 2 3 3 4 4 5 5 4 5 4 4 4 4 4 4 4 3 3 3 2 2 2 1 1 1 1 0 -0 -1 -1 -2 -3 -4 -4 -5 -6 -6 -7 -8 -8 -8 -9
2 2 3 2 2 2 3 3 4 4 4 4 4 4 4 4 4 3 3 3 2 2 1 1 1 1 1 -0 -1 -1 -2 -3 -3 -4 -5 -6 -6 -7 -8 -8 -9 -9 -9 -10
2 3 2 2 2 3 3 3 3 3 4 4 3 3 3 3 3 2 2 2 2 1 1 1 1 0 -0 -1 -1 -2 -2 -3 -5 -6 -6 -7 -8 -9 -10 -10 -10 -10 -10 -11
2 2 2 3 2 2 2 2 2 2 3 3 3 3 3 3 2 2 2 2 1 1 1 1 0 -0 -0 -1 -1 -2 -4 -5 -5 -6 -7 -9 -10 -11 -11 -11 -11 -11 -11 -11
1 1 1 1 1 2 2 2 2 2 2 2 2 2 2 1 1 0 1 1 1 0 -0 -0 -0 -1 -2 -3 -5 -5 -6 -6 -7 -8 -8 -9 -9 -10 -12 -12 -12 -11 -11 -12
1 1 1 1 1 1 1 1 1 2 2 2 2 1 1 1 1 -0 -0 0 0 -0 -1 -1 -1 -3 -4 -5 -6 -7 -8 -8 -8 -8 -9 -10 -11 -11 -13 -13 -12 -13 -13 -13
-0 0 0 0 0 0 1 1 1 1 1 1 1 1 1 1 1 1 0 0 0 -0 -3 -5 -6 -6 -7 -7 -8 -8 -8 -9 -9 -10 -11 -11 -12 -14 -13 -13 -13 -14 -14 -14
-1 -1 -0 0 0 0 0 -0 -0 0 0 0 0 0 -0 -0 -1 -1 -2 -3 -5 -5 -6 -7 -8 -8 -9 -8 -9 -9 -9 -10 -10 -11 -12 -13 -14 -14 -14 -14 -14 -15 -15 -15
-1 -1 -1 -1 -1 -1 -1 -1 -1 -1 -1 -1 -2 -2 -3 -3 -4 -5 -6 -6 -7 -7 -8 -9 -9 -9 -9 -9 -10 -10 -11 -11 -12 -13 -14 -14 -14 -14 -15 -15 -15 -15 -16 -16
-1 -1 -1 -1 -1 -1 -2 -2 -2 -1 -3 -3 -4 -4 -5 -5 -6 -6 -7 -8 -8 -9 -9 -9 -10 -10 -10 -11 -11 -11 -12 -13 -14 -14 -15 -15 -15 -15 -15 -16 -16 -16 -17 -17
-2 -2 -2 -2 -2 -2 -3 -2 -3 -3 -3 -4 -5 -5 -6 -6 -7 -8 -8 -9 -9 -10 -10 -10 -11 -11 -11 -11 -12 -13 -14 -15 -15 -15 -15 -16 -16 -16 -17 -17 -17 -18 -18 -19
-2 -2 -3 -3 -2 -3 -3 -4 -4 -4 -5 -6 -6 -7 -7 -8 -9 -9 -10 -10 -10 -11 -11 -11 -12 -12 -13 -13 -14 -14 -15 -15 -15 -16 -16 -17 -17 -18 -18 -19 -19 -19 -20 -20
-3 -3 -3 -3 -4 -4 -5 -5 -6 -7 -7 -8 -8 -9 -9 -9 -10 -10 -11 -11 -11 -12 -12 -13 -13 -13 -14 -15 -15 -15 -16 -16 -17 -17 -18 -19 -19 -19 -20 -20 -21 -21 -22 -22
-5 -5 -5 -5 -6 -6 -7 -8 -8 -9 -9 -9 -10 -10 -10 -11 -11 -11 -12 -12 -12 -12 -13 -14 -14 -15 -15 -16 -16 -17 -17 -18 -19 -19 -20 -20 -21 -21 -22 -22 -22 -23 -23 -23
-7 -7 -7 -8 -8 -8 -9 -9 -10 -10 -10 -10 -11 -11 -11 -12 -12 -12 -12 -13 -13 -13 -14 -14 -15 -16 -17 -17 -18 -19 -19 -20 -21 -21 -22 -22 -23 -23 -23 -24 -24 -24 -24 -25
-8 -9 -9 -9 -9 -10 -10 -10 -10 -11 -11 -11 -11 -12 -12 -12 -12 -13 -13 -14 -14 -15 -15 -16 -17 -18 -18 -19 -20 -20 -21 -21 -22 -23 -23 -24 -24 -24 -25 -25 -25 -25 -25 -26
-9 -10 -10 -10 -10 -10 -10 -11 -11 -11 -11 -12 -12 -12 -13 -13 -13 -14 -14 -15 -16 -17 -17 -18 -18 -18 -19 -20 -20 -21 -22 -23 -24 -25 -25 -26 -26 -26 -26 -26 -26 -26 -26 -26
-10 -10 -11 -11 -11 -11 -11 -12 -12 -12 -12 -12 -13 -13 -14 -14 -15 -15 -16 -16 -17 -17 -18 -18 -19 -20 -20 -21 -22 -23 -24 -26 -27 -27 -27 -27 -27 -27 -27 -27 -27 -27 -27 -27

GFSNGP_700_temp_075.txt.gz
Temp
4 6 6 7 7 7 7 7 7 7 7 8 8 8 8 8 8 7 7 7 6 6 6 6 6 6 6 6 5 5 4 4 4 4 4 3 3 2 2 2 2 2 1 1
4 5 7 6 7 7 7 7 7 7 7 8 8 8 8 8 8 7 6 7 6 6 6 6 6 6 5 5 5 5 4 4 4 4 3 3 3 3 2 2 2 1 1 0
3 5 6 6 6 7 7 7 7 7 8 8 8 8 8 8 7 7 7 6 6 6 6 6 6 5 5 5 5 5 4 4 4 4 3 3 3 2 2 2 1 1 -1 -2
2 3 3 5 6 6 7 7 7 7 8 8 8 8 7 7 7 7 7 6 6 6 6 5 5 5 4 4 4 4 4 4 4 3 3 3 2 2 2 2 1 0 -1 -1
3 3 4 5 5 6 6 6 7 7 7 8 7 7 7 7 7 6 6 6 6 6 6 5 5 4 4 4 4 4 4 4 3 3 2 2 2 2 1 1 -0 -1 -1 -2
2 3 1 4 5 6 6 6 6 7 7 7 7 7 7 7 7 6 6 6 6 6 5 4 4 4 4 4 4 3 3 3 3 3 2 2 1 1 -0 -1 -1 -1 -2 -3
-0 0 3 4 5 5 5 6 7 7 6 6 6 6 6 6 6 5 5 5 5 5 5 4 4 4 4 3 3 3 3 2 2 2 2 1 0 -0 -1 -1 -2 -3 -4 -5
-1 -0 0 4 5 5 5 5 6 6 6 5 6 6 6 5 5 5 5 5 4 4 4 4 4 3 3 3 2 2 2 2 1 1 1 -0 -1 -1 -2 -3 -4 -5 -5 -5
1 1 2 3 4 4 4 5 5 5 5 5 5 5 5 5 5 5 4 4 4 4 4 3 3 3 2 2 2 1 1 1 1 0 -0 -1 -2 -3 -3 -4 -5 -6 -7 -7
1 1 2 2 3 3 2 4 4 4 4 5 5 5 5 4 4 4 4 4 3 3 3 3 2 2 1 1 1 1 0 0 -0 -1 -2 -2 -3 -4 -5 -6 -7 -8 -8 -9
1 1 -1 1 2 3 3 3 2 2 3 4 3 4 4 4 4 3 3 3 2 2 2 2 1 1 1 1 0 0 -0 -1 -1 -2 -3 -4 -5 -6 -7 -8 -9 -10 -11 -11
1 2 1 2 2 2 2 1 2 2 2 3 2 3 3 3 3 3 2 2 2 2 1 1 1 1 0 0 -0 -0 -1 -2 -3 -5 -5 -6 -6 -7 -9 -9 -9 -11 -12 -12
1 1 2 2 2 2 2 2 2 2 3 3 3 2 2 2 2 2 2 2 1 2 1 1 -0 -1 -1 -2 -2 -2 -3 -4 -5 -6 -6 -6 -8 -8 -8 -9 -10 -11 -11 -12
1 1 1 1 1 2 1 1 1 2 2 2 2 2 2 2 2 2 1 1 1 1 1 0 -1 -3 -3 -3 -4 -5 -6 -6 -6 -6 -8 -8 -8 -8 -9 -9 -10 -11 -12 -12
0 1 1 1 1 1 1 1 1 1 1 1 1 1 1 1 1 1 1 1 1 -0 -1 -3 -4 -5 -5 -6 -6 -6 -7 -7 -8 -8 -8 -9 -10 -10 -11 -11 -12 -12 -13 -14
0 -0 -0 0 0 0 0 -0 0 0 1 1 0 0 0 0 -0 -1 -1 -2 -2 -4 -5 -5 -6 -7 -7 -7 -8 -8 -9 -9 -9 -9 -10 -10 -11 -11 -12 -13 -14 -14 -15 -15
-1 -1 -1 -0 0 0 -0 0 -0 -0 -0 -0 -1 -1 -1 -2 -3 -3 -4 -4 -5 -6 -7 -7 -7 -8 -8 -9 -9 -9 -9 -10 -10 -11 -11 -11 -12 -13 -14 -14 -15 -15 -15 -16
-1 -1 -0 -0 -0 -1 -1 -1 -1 -1 -2 -2 -2 -2 -3 -3 -4 -5 -6 -7 -7 -7 -8 -8 -9 -9 -10 -10 -10 -10 -11 -11 -11 -11 -12 -13 -14 -15 -15 -16 -16 -16 -16 -17
-1 -1 -1 -2 -2 -2 -2 -2 -2 -2 -3 -3 -3 -4 -4 -5 -6 -7 -7 -8 -8 -9 -9 -10 -10 -10 -10 -11 -11 -11 -11 -12 -12 -13 -14 -14 -15 -15 -16 -16 -17 -17 -17 -18
-2 -2 -3 -2 -2 -3 -3 -3 -3 -3 -3 -4 -5 -5 -6 -6 -7 -8 -9 -9 -9 -10 -10 -11 -11 -11 -12 -12 -12 -12 -13 -13 -14 -14 -15 -15 -16 -17 -17 -18 -18 -19 -19 -20
-2 -3 -3 -3 -3 -3 -3 -3 -4 -4 -4 -5 -6 -7 -7 -8 -9 -9 -9 -10 -10 -11 -11 -11 -12 -12 -12 -12 -13 -13 -14 -15 -15 -16 -16 -17 -17 -18 -19 -19 -20 -20 -21 -21
-3 -3 -3 -3 -4 -4 -4 -5 -6 -6 -6 -7 -8 -8 -9 -9 -10 -10 -10 -11 -11 -12 -12 -12 -12 -13 -13 -14 -14 -15 -16 -16 -17 -17 -18 -18 -19 -20 -21 -21 -22 -22 -23 -23
-5 -5 -5 -6 -6 -6 -6 -7 -8 -8 -8 -9 -9 -9 -10 -10 -11 -11 -11 -12 -12 -12 -13 -13 -14 -14 -14 -15 -15 -16 -16 -17 -17 -18 -19 -20 -21 -22 -23 -24 -24 -24 -24 -25
-7 -7 -7 -8 -8 -8 -8 -9 -9 -9 -10 -10 -10 -10 -11 -11 -11 -12 -12 -12 -13 -13 -13 -14 -15 -15 -15 -16 -16 -17 -18 -18 -19 -20 -21 -22 -23 -24 -25 -26 -26 -26 -26 -26
-8 -9 -9 -9 -9 -10 -10 -10 -10 -10 -11 -11 -11 -11 -12 -12 -12 -13 -13 -13 -14 -14 -14 -15 -15 -16 -16 -17 -18 -18 -19 -20 -20 -21 -22 -24 -25 -27 -27 -27 -27 -27 -27 -27
-9 -10 -10 -10 -11 -11 -11 -11 -11 -11 -12 -12 -12 -12 -12 -13 -13 -14 -14 -15 -15 -15 -16 -16 -16 -17 -17 -17 -18 -19 -20 -21 -22 -23 -25 -27 -28 -28 -28 -28 -28 -28 -28 -28
-10 -11 -11 -11 -11 -11 -11 -12 -12 -12 -12 -12 -12 -13 -13 -14 -14 -15 -15 -16 -16 -16 -17 -17 -17 -17 -18 -19 -20 -21 -22 -23 -24 -26 -27 -28 -29 -29 -29 -29 -29 -28 -28 -28

GFSNGP_700_temp_078.txt.gz
Temp
5 5 5 4 4 6 7 7 7 7 7 7 7 7 7 8 8 8 8 7 7 7 7 6 6 6 6 6 6 5 5 5 4 4 4 3 3 3 3 2 2 1 1 1
4 4 4 3 3 5 7 7 7 7 7 7 7 8 8 8 8 8 7 7 7 7 7 6 6 6 6 5 5 5 5 4 4 4 3 3 3 3 2 2 2 2 2 1
2 3 2 1 2 4 6 6 7 7 7 7 7 8 8 8 8 8 7 7 7 7 6 6 6 6 6 5 5 4 4 3 3 3 3 3 3 3 2 2 2 2 2 1
2 2 -1 1 3 5 6 6 6 7 7 7 7 7 8 8 8 8 7 7 7 6 6 6 6 5 5 5 4 4 4 3 3 3 3 3 2 2 2 2 2 1 1 1
2 1 1 2 4 5 5 5 7 7 7 7 7 7 7 7 7 7 7 6 6 6 6 6 5 4 4 4 4 3 3 3 3 3 3 3 3 2 2 2 2 1 1 -1
1 2 -1 3 4 4 5 5 6 6 7 7 7 7 7 7 7 7 6 6 6 6 6 5 5 4 4 4 3 3 3 3 3 3 2 2 2 2 2 2 1 -0 -1 -2
0 0 2 3 4 4 4 5 6 6 6 6 6 6 6 6 6 6 6 6 6 5 5 5 4 4 4 4 3 3 3 3 3 2 2 2 2 1 1 0 -1 -1 -2 -2
-1 -1 -1 3 3 4 4 4 5 6 5 5 6 6 6 6 6 6 6 5 5 5 4 4 4 4 4 3 3 2 2 2 2 2 2 1 1 0 -0 -1 -1 -2 -3 -4
-0 0 0 2 3 3 3 3 4 5 5 5 5 5 5 6 5 5 5 5 5 4 4 4 4 3 3 3 2 2 1 1 1 1 1 0 -0 -1 -1 -2 -3 -4 -5 -6
-0 1 1 1 2 2 3 2 3 5 4 4 4 4 5 4 4 4 4 4 4 4 4 4 3 3 3 2 1 1 1 1 1 0 -0 -1 -2 -2 -4 -5 -6 -6 -6 -7
0 1 1 1 2 3 2 2 2 3 4 4 4 3 3 3 3 3 3 3 3 3 3 3 3 3 2 2 1 1 0 -0 -0 -1 -2 -3 -4 -5 -6 -6 -7 -7 -8 -9
0 1 1 1 1 1 1 1 2 3 3 3 3 3 3 3 3 3 3 3 3 2 2 2 2 2 1 0 -0 -0 -1 -2 -3 -3 -4 -5 -6 -6 -7 -7 -7 -8 -8 -8
-0 1 1 1 1 0 1 0 1 2 0 1 1 1 1 2 2 2 2 2 2 2 2 1 1 0 -1 -1 -2 -4 -4 -4 -5 -6 -7 -6 -6 -6 -7 -8 -8 -8 -9 -10
-0 0 0 1 1 0 1 1 1 1 1 1 1 1 1 1 2 2 2 2 1 1 0 -1 -2 -2 -3 -4 -4 -5 -5 -6 -7 -7 -8 -8 -8 -9 -9 -9 -10 -10 -11 -12
-1 -0 0 1 1 1 1 1 1 1 1 1 1 2 1 1 1 1 0 0 -0 -1 -2 -3 -4 -5 -5 -6 -6 -7 -7 -8 -8 -8 -9 -9 -9 -10 -10 -11 -11 -12 -12 -12
-2 -0 0 0 1 0 0 0 0 0 -0 0 0 0 0 -0 -0 -1 -2 -3 -3 -3 -4 -5 -5 -6 -6 -7 -7 -8 -8 -9 -9 -9 -10 -10 -11 -11 -11 -12 -12 -12 -13 -13
-1 -0 -0 -0 -0 -0 -0 -0 -0 -0 -1 -1 -1 -1 -1 -1 -2 -3 -3 -3 -4 -4 -5 -6 -7 -7 -7 -8 -8 -9 -9 -10 -10 -10 -11 -11 -12 -12 -12 -12 -13 -14 -15 -16
-1 -1 -1 -1 -1 -1 -1 -1 -1 -1 -2 -2 -2 -3 -3 -3 -3 -4 -4 -5 -6 -6 -7 -7 -8 -8 -9 -9 -10 -10 -10 -11 -11 -11 -12 -12 -12 -13 -14 -15 -16 -16 -17 -17
-2 -1 -1 -1 -1 -2 -2 -2 -2 -2 -2 -3 -3 -4 -3 -4 -5 -6 -6 -7 -7 -8 -8 -8 -9 -9 -10 -10 -10 -11 -11 -12 -12 -12 -13 -13 -14 -15 -15 -16 -17 -17 -18 -19
-3 -2 -2 -2 -2 -2 -3 -3 -3 -3 -3 -3 -5 -5 -6 -6 -6 -7 -7 -8 -8 -9 -9 -9 -10 -10 -11 -11 -11 -12 -12 -12 -13 -13 -14 -14 -15 -16 -16 -17 -18 -19 -19 -20
-3 -4 -3 -3 -3 -3 -3 -3 -3 -4 -4 -5 -6 -7 -7 -7 -8 -8 -9 -9 -10 -10 -10 -10 -11 -11 -11 -12 -12 -12 -13 -13 -14 -14 -15 -15 -16 -17 -18 -19 -19 -20 -21 -22
-4 -4 -4 -4 -4 -4 -4 -4 -5 -6 -6 -7 -8 -8 -9 -9 -9 -10 -10 -10 -10 -11 -11 -11 -12 -12 -12 -13 -13 -14 -14 -14 -15 -15 -16 -17 -18 -18 -19 -20 -21 -23 -24 -25
-5 -4 -5 -4 -5 -6 -6 -7 -8 -8 -8 -9 -9 -10 -10 -10 -11 -11 -11 -11 -11 -11 -12 -12 -12 -13 -13 -14 -14 -15 -15 -15 -16 -17 -17 -18 -19 -20 -21 -22 -24 -25 -26 -27
-7 -7 -7 -8 -8 -8 -8 -9 -9 -10 -10 -10 -10 -11 -11 -12 -11 -11 -11 -11 -12 -12 -13 -13 -14 -14 -15 -15 -15 -16 -16 -17 -17 -18 -19 -20 -21 -22 -23 -25 -26 -27 -28 -28
-9 -9 -9 -9 -10 -10 -10 -10 -10 -10 -11 -11 -12 -11 -11 -11 -11 -12 -12 -12 -13 -14 -14 -14 -15 -15 -15 -16 -16 -17 -17 -18 -19 -20 -21 -22 -23 -24 -25 -27 -27 -28 -28 -28
-9 -10 -10 -10 -11 -11 -11 -11 -11 -12 -12 -12 -11 -12 -12 -12 -13 -13 -14 -14 -14 -15 -15 -15 -16 -16 -17 -17 -18 -18 -19 -20 -21 -22 -23 -24 -25 -26 -27 -27 -27 -27 -28 -28
-11 -11 -11 -11 -11 -12 -12 -13 -12 -12 -12 -12 -12 -12 -13 -14 -14 -14 -15 -15 -15 -16 -16 -16 -17 -17 -18 -18 -19 -20 -20 -21 -22 -23 -24 -25 -26 -26 -27 -27 -27 -27 -27 -27

GFSNGP_700_temp_084.txt.gz
Temp
-2 -2 -1 1 1 3 4 5 4 5 5 6 7 7 7 7 7 7 7 8 7 7 7 7 7 6 6 6 6 6 5 5 5 5 4 4 3 3 3 3 2 2 2 2
-2 -1 -0 -0 2 2 4 4 5 5 4 6 6 7 7 7 7 7 7 7 7 7 7 7 7 6 6 6 6 5 5 5 5 4 4 4 3 3 3 3 2 2 2 2
-3 -2 -2 -1 2 3 3 4 5 5 5 5 6 7 7 7 7 7 7 7 7 7 7 7 7 6 6 6 6 5 5 5 4 4 4 3 3 3 3 2 2 2 2 1
-4 -2 -2 2 3 3 3 4 4 4 4 5 6 7 7 7 7 7 7 7 7 7 7 7 7 6 6 6 5 5 5 4 4 4 3 3 3 2 2 2 1 1 1 1
-4 -3 -2 0 1 3 3 4 4 5 5 5 5 5 6 7 7 7 7 7 7 7 7 7 6 6 6 5 5 5 4 3 3 3 3 2 2 2 1 1 2 2 1 -1
-4 -3 -3 0 -1 1 2 2 4 4 4 5 5 4 6 7 7 7 7 7 7 7 7 6 6 6 6 5 5 5 4 4 3 3 2 2 2 2 2 2 1 -1 -1 -1
-4 -3 -1 1 0 -1 0 3 2 2 3 4 4 4 6 6 7 7 7 7 7 7 7 6 6 5 5 5 4 4 4 4 3 3 3 3 2 2 1 0 0 -0 -1 -1
-4 -3 -3 -2 -1 -2 -1 0 2 3 2 2 2 3 4 5 6 6 7 7 7 6 6 6 5 5 4 4 4 4 3 3 3 3 2 2 2 1 1 0 0 -0 -1 -2
-3 -2 -2 -1 -2 -2 -2 -1 -0 2 2 1 1 2 3 3 4 5 5 5 6 5 5 5 5 4 4 4 3 3 3 2 2 2 1 1 0 -0 -0 -1 -1 -2 -3 -4
-4 -2 -2 -1 -2 -2 -1 -0 -1 -1 0 0 0 -0 2 3 4 5 5 5 5 5 5 4 4 4 3 3 2 2 2 2 2 1 0 -0 -1 -1 -2 -3 -3 -3 -5 -5
-3 -3 -2 -1 -1 -1 -0 0 -0 -1 -1 -1 0 -0 2 3 4 4 4 4 4 4 4 3 3 2 2 1 1 1 1 1 1 0 -1 -2 -3 -4 -5 -6 -6 -6 -7 -7
-4 -4 -4 -2 1 -0 -0 -0 0 -0 -1 -2 -1 -1 0 1 1 1 2 2 2 1 1 1 0 0 0 1 0 0 0 0 -0 -1 -2 -3 -4 -5 -6 -6 -7 -8 -8 -8
-4 -4 -4 -2 -1 -0 0 0 -0 -0 -1 -1 -1 -1 -1 -1 -1 -1 -1 0 1 -0 -1 -1 -1 -1 -2 -1 -1 -1 -1 -2 -2 -3 -3 -4 -5 -6 -7 -8 -8 -9 -9 -9
-4 -4 -3 -3 -2 -1 -0 -0 -0 -1 -2 -1 -1 -1 -1 -1 -1 -1 -1 -1 -1 -1 -2 -1 -1 -2 -2 -2 -3 -3 -3 -4 -5 -6 -6 -7 -7 -8 -8 -9 -9 -9 -10 -10
-3 -3 -4 -3 -3 -1 -1 -0 -1 -1 -1 -2 -2 -1 0 -0 -1 -2 -2 -2 -1 -2 -2 -2 -2 -3 -3 -4 -5 -6 -6 -6 -7 -7 -8 -8 -9 -9 -9 -10 -10 -11 -11 -12
-3 -3 -3 -3 -3 -2 -1 -1 -1 -1 -1 -1 -1 -0 -0 -1 -1 -1 -2 -2 -2 -1 -2 -3 -3 -4 -4 -5 -6 -6 -7 -7 -8 -8 -9 -9 -10 -10 -11 -11 -11 -12 -12 -13
-3 -2 -3 -2 -2 -2 -1 -1 -1 -1 -1 -1 -1 -1 -1 -1 -1 -2 -2 -2 -2 -3 -3 -4 -4 -5 -6 -7 -7 -7 -8 -8 -9 -9 -9 -10 -10 -11 -11 -12 -12 -13 -13 -13
-3 -3 -3 -3 -2 -2 -2 -2 -2 -2 -1 -1 -1 -2 -2 -2 -2 -3 -3 -3 -4 -4 -4 -5 -7 -7 -7 -7 -8 -9 -9 -9 -10 -10 -11 -11 -11 -11 -12 -12 -13 -13 -14 -14
-4 -4 -4 -3 -3 -2 -2 -2 -2 -2 -2 -2 -3 -3 -3 -3 -3 -4 -4 -5 -5 -5 -7 -8 -8 -8 -8 -9 -9 -10 -10 -10 -11 -11 -11 -11 -12 -13 -13 -14 -14 -15 -15 -16
-4 -4 -4 -4 -3 -3 -3 -3 -3 -2 -3 -3 -4 -4 -4 -4 -4 -5 -5 -6 -7 -8 -8 -9 -9 -9 -10 -10 -10 -11 -11 -11 -11 -12 -12 -13 -13 -14 -14 -15 -15 -16 -17 -18
-5 -4 -4 -4 -4 -4 -4 -4 -3 -3 -3 -3 -4 -4 -4 -5 -6 -7 -8 -8 -9 -9 -10 -10 -10 -11 -11 -11 -11 -11 -11 -12 -13 -13 -13 -14 -14 -15 -15 -16 -17 -18 -19 -20
-6 -4 -5 -4 -4 -4 -4 -3 -4 -4 -4 -5 -5 -6 -8 -8 -8 -9 -9 -10 -10 -10 -10 -11 -12 -11 -11 -11 -12 -12 -13 -13 -14 -14 -14 -15 -15 -16 -17 -18 -19 -19 -20 -21
-5 -5 -5 -6 -6 -5 -5 -5 -5 -6 -7 -8 -9 -9 -9 -9 -10 -10 -10 -11 -11 -12 -12 -11 -12 -12 -12 -13 -13 -13 -14 -14 -15 -15 -15 -16 -17 -18 -18 -19 -20 -20 -21 -22
-7 -6 -6 -6 -6 -7 -6 -6 -8 -9 -9 -9 -10 -10 -11 -11 -11 -11 -11 -12 -12 -12 -12 -12 -13 -13 -13 -14 -14 -14 -15 -15 -15 -16 -17 -17 -18 -19 -19 -20 -21 -21 -22 -23
-8 -8 -8 -9 -9 -9 -9 -10 -10 -11 -11 -11 -11 -11 -11 -11 -12 -12 -12 -12 -12 -13 -13 -13 -14 -14 -14 -15 -15 -15 -16 -16 -17 -17 -18 -19 -19 -20 -20 -21 -22 -22 -23 -23
-10 -10 -11 -11 -11 -11 -11 -12 -11 -11 -12 -12 -11 -12 -12 -13 -12 -12 -13 -13 -13 -14 -14 -14 -15 -15 -15 -16 -16 -16 -17 -17 -18 -18 -19 -20 -20 -21 -21 -22 -22 -23 -24 -24
-12 -12 -12 -12 -12 -12 -12 -12 -12 -12 -12 -13 -13 -13 -12 -12 -13 -13 -14 -14 -14 -14 -15 -15 -15 -16 -16 -17 -17 -18 -18 -19 -19 -19 -20 -21 -21 -22 -22 -23 -23 -24 -24 -24

GFSNGP_700_temp_087.txt.gz
Temp
-4 -3 -1 -1 -1 1 2 1 1 3 3 4 5 5 6 7 7 8 8 8 8 7 7 7 7 7 6 6 6 6 6 5 5 5 5 4 4 3 3 3 3 2 2 2
-5 -3 -3 -2 0 1 2 2 2 1 2 4 5 6 6 6 7 7 7 7 7 7 7 7 7 7 6 6 6 6 5 5 5 5 5 4 4 3 3 3 3 3 3 2
-4 -3 -3 -3 -1 1 2 3 3 2 3 4 4 5 6 6 6 7 7 6 7 7 7 7 7 7 7 6 6 6 5 5 5 5 5 4 4 3 3 3 3 2 2 2
-6 -4 -3 1 1 0 -0 2 2 2 2 3 4 5 5 6 6 7 7 7 7 7 7 7 7 7 6 6 6 6 5 5 5 4 4 4 4 3 3 2 2 2 2 1
-6 -4 -2 -1 0 -0 -1 2 1 1 2 3 3 4 4 6 6 6 7 7 7 7 7 7 7 7 6 6 6 6 5 5 5 4 4 4 3 3 3 2 2 1 1 1
-6 -4 -2 -1 -0 0 -0 -1 -0 0 1 1 2 4 5 5 6 6 6 7 7 7 7 7 7 7 7 6 6 6 5 5 5 4 4 4 4 3 3 2 2 1 1 -0
-6 -6 -4 -2 -1 -1 -1 -0 -0 -1 -0 1 1 3 3 4 5 5 6 6 7 7 7 7 7 7 6 6 6 5 5 5 4 4 3 3 3 2 2 2 1 0 -2 -2
-6 -6 -4 -3 -2 -2 -1 -1 -2 -1 -1 -1 1 2 2 4 4 5 6 6 7 7 7 7 7 6 6 6 5 5 5 4 3 3 3 3 2 2 2 1 -1 -2 -2 -3
-4 -3 -4 -4 -3 -2 -3 -3 -2 -2 -1 -1 1 2 2 3 4 4 4 5 5 5 6 6 5 5 5 5 4 4 4 3 3 2 2 2 2 1 1 -0 -2 -2 -3 -4
-4 -4 -3 -3 -2 -3 -3 -2 -2 -1 -2 -1 -1 0 2 2 2 3 3 3 3 4 4 4 4 4 4 4 3 3 2 2 2 1 1 1 1 0 -1 -2 -3 -4 -5 -5
-4 -3 -3 -3 -3 -3 -2 -3 -2 -1 -1 -2 -1 -0 0 0 0 2 2 1 2 2 3 3 3 3 3 3 2 1 1 1 1 0 0 -0 -1 -2 -2 -4 -5 -6 -6 -7
-4 -4 -4 -3 -3 -3 -3 -3 -2 -0 -1 -1 -2 -1 -1 -1 -0 0 -0 -0 0 -0 -0 1 1 1 -0 0 0 -1 -1 -1 -1 -2 -2 -2 -3 -3 -5 -6 -6 -7 -8 -8
-4 -4 -4 -4 -4 -3 -3 -3 -1 -0 -1 -1 -1 -2 -1 -2 -1 -1 -1 -1 -1 -1 -1 -0 -1 -1 -1 -1 -2 -2 -2 -2 -2 -3 -3 -4 -5 -5 -6 -7 -8 -9 -9 -9
-3 -4 -3 -3 -4 -3 -3 -3 -2 -2 -2 -1 -2 -2 -2 -2 -2 -2 -2 -1 -1 -1 -1 -1 -1 -1 -2 -2 -2 -3 -3 -4 -4 -5 -5 -6 -6 -7 -8 -8 -9 -9 -9 -10
-3 -4 -4 -3 -3 -3 -3 -3 -2 -2 -2 -1 -1 -1 -2 -2 -2 -1 -2 -2 -2 -3 -3 -3 -3 -3 -3 -3 -4 -5 -5 -6 -6 -6 -7 -7 -8 -8 -9 -9 -9 -10 -10 -10
-4 -4 -4 -3 -3 -3 -3 -3 -2 -2 -1 -2 -1 -2 -1 -1 -2 -2 -1 -2 -2 -2 -2 -3 -3 -3 -4 -4 -5 -5 -6 -7 -7 -8 -8 -9 -9 -9 -9 -10 -10 -10 -11 -11
-4 -4 -4 -3 -3 -3 -3 -3 -3 -2 -2 -2 -1 -1 -1 -1 -1 -2 -2 -2 -2 -2 -3 -3 -4 -4 -5 -5 -6 -7 -7 -8 -9 -9 -10 -10 -10 -10 -10 -11 -11 -12 -12 -12
-3 -3 -4 -4 -3 -3 -2 -2 -3 -3 -2 -2 -2 -2 -2 -2 -2 -2 -3 -3 -3 -3 -4 -5 -5 -5 -6 -7 -8 -8 -9 -9 -10 -10 -10 -10 -10 -11 -11 -12 -12 -13 -13 -14
-4 -4 -4 -4 -4 -3 -3 -3 -3 -2 -2 -2 -2 -2 -2 -3 -3 -3 -4 -4 -4 -5 -5 -6 -7 -8 -8 -8 -9 -9 -10 -10 -10 -10 -11 -11 -11 -12 -13 -13 -14 -14 -15 -15
-4 -4 -5 -5 -4 -4 -4 -4 -3 -3 -3 -3 -3 -3 -3 -3 -4 -4 -5 -5 -6 -6 -8 -8 -8 -9 -9 -10 -10 -10 -10 -10 -11 -11 -12 -12 -13 -13 -14 -14 -15 -15 -16 -17
-6 -6 -6 -5 -5 -5 -4 -4 -4 -4 -4 -3 -3 -4 -4 -4 -5 -6 -7 -8 -8 -9 -9 -10 -10 -10 -10 -10 -10 -10 -11 -12 -12 -13 -13 -14 -14 -14 -15 -15 -16 -17 -17 -18
-7 -7 -6 -6 -5 -5 -5 -5 -4 -4 -4 -4 -4 -5 -5 -6 -7 -8 -9 -10 -10 -10 -10 -11 -11 -11 -11 -11 -11 -12 -12 -13 -13 -14 -14 -14 -15 -16 -16 -17 -17 -18 -19 -20
-7 -6 -6 -6 -6 -6 -6 -6 -7 -7 -6 -8 -8 -7 -8 -9 -9 -10 -11 -11 -11 -11 -12 -12 -11 -12 -12 -12 -13 -13 -13 -14 -14 -15 -15 -16 -16 -17 -17 -18 -19 -19 -20 -21
-7 -7 -7 -6 -6 -7 -9 -9 -9 -10 -10 -10 -10 -11 -11 -11 -11 -11 -11 -11 -12 -13 -12 -12 -12 -13 -13 -13 -14 -14 -15 -15 -15 -16 -16 -16 -17 -18 -19 -19 -20 -20 -21 -21
-9 -9 -8 -8 -9 -9 -10 -10 -11 -11 -11 -11 -12 -12 -12 -12 -12 -12 -13 -13 -13 -13 -13 -13 -13 -14 -14 -14 -15 -15 -15 -16 -16 -16 -17 -18 -18 -19 -20 -20 -21 -21 -22 -22
-11 -11 -11 -11 -11 -11 -12 -12 -12 -12 -13 -12 -12 -12 -12 -12 -13 -13 -13 -13 -13 -13 -14 -14 -14 -15 -15 -16 -16 -16 -16 -16 -17 -18 -18 -19 -19 -20 -21 -21 -21 -22 -22 -23
-13 -13 -13 -13 -13 -13 -13 -13 -13 -13 -13 -12 -13 -13 -14 -13 -13 -13 -14 -14 -14 -14 -15 -15 -15 -16 -16 -16 -16 -17 -17 -17 -18 -19 -19 -20 -20 -21 -21 -22 -22 -23 -23 -23